Flag for Russia Weather past 2 weeks in Murmansk, Russia

Now
50 °F

Partly sunny.


Feels Like: 49 °F
Forecast: 49 / 58 °F
Wind: 3 mph from Northwest

Location: Murmansk Airport

Current Time: Aug 3, 2015 at 12:18:30 PM

Latest Report: Aug 3, 2015 at 12:00 PM


Visibility: N/A

Pressure: 29.80 "Hg

Humidity: 94%

Dew point: 48 °F

Location of MurmanskLocation

Historic Weather in Murmansk — Graph

°F

Murmansk temperature yesterday

Maximum temperature yesterday: 55 °F (at 4:30 PM)
Minimum temperature yesterday: 48 °F (at 12:00 AM)
Average temperature yesterday: 51 °F

Past Weeks' High & Low Weather Summary

 TemperatureHumidityPressure
High70 °F (Jul 29, 1:30 PM)94% (Jul 20, 5:00 AM)30.07 "Hg (Jul 20, 5:00 AM)
Low43 °F (Jul 31, 2:30 AM)33% (Jul 30, 3:30 PM)29.53 "Hg (Jul 19, 1:00 PM)
Average54 °F74%29.74 "Hg
* Reported Jul 19 11:00 AM — Aug 3 11:00 AM, Murmansk, Weather by CustomWeather, © 2015

Note: Actual official high and low records may vary slightly from our data, if they occured in-between our weather recording intervals... More about our weather records

Advertising

Murmansk weather history for previous 24 hours

 ConditionsComfort  
Time TempWeatherWind HumidityBarometerVisibility
11:00 AM
Mon, Aug 3
50 °FSprinkles. Partly sunny.6 mph94%29.80 "Hg2 mi
10:30 AM50 °FSprinkles. Partly sunny.3 mph94%29.77 "Hg2 mi
10:00 AM50 °FSprinkles. Partly sunny.6 mph88%29.77 "Hg3 mi
9:30 AM50 °FSprinkles. Partly sunny.6 mph88%29.77 "Hg2 mi
9:00 AM50 °FSprinkles. Partly sunny.3 mph94%29.77 "Hg6 mi
8:30 AM50 °FSprinkles. Partly sunny.3 mph88%29.77 "Hg6 mi
8:00 AM48 °FSprinkles. Partly sunny.3 mph94%29.77 "Hg3 mi
6:30 AM48 °FDrizzle. Low clouds.3 mph94%29.77 "HgN/A
6:00 AM48 °FDrizzle. Low clouds.3 mph94%29.77 "HgN/A
5:30 AM48 °FDrizzle. Partly sunny.1 mph94%29.77 "HgN/A
5:00 AM48 °FDrizzle. Partly sunny.3 mph94%29.77 "HgN/A
4:30 AM48 °FDrizzle. Partly sunny.3 mph94%29.77 "HgN/A
4:00 AM48 °FDrizzle. Partly sunny.3 mph94%29.77 "HgN/A
3:30 AM48 °FPassing clouds.3 mph94%29.77 "HgN/A
3:00 AM48 °FSprinkles. Passing clouds.3 mph94%29.77 "HgN/A
2:30 AM48 °FSprinkles. Passing clouds.1 mph94%29.77 "HgN/A
2:00 AM48 °FPassing clouds.1 mph87%29.80 "HgN/A
1:30 AM48 °FPassing clouds.1 mph94%29.80 "HgN/A
1:00 AM48 °FPassing clouds.1 mph87%29.80 "HgN/A
12:00 AM48 °FPassing clouds.1 mph87%29.80 "HgN/A
11:30 PM
Sun, Aug 2
50 °FScattered clouds.3 mph82%29.80 "HgN/A
11:00 PM50 °FScattered clouds.1 mph88%29.80 "HgN/A
10:30 PM50 °FScattered clouds.1 mph88%29.80 "HgN/A
10:00 PM50 °FScattered clouds.3 mph88%29.80 "HgN/A
9:30 PM52 °FScattered clouds.1 mph82%29.80 "HgN/A
9:00 PM52 °FScattered clouds.3 mph82%29.80 "HgN/A
8:30 PM52 °FScattered clouds.3 mph82%29.80 "HgN/A
8:00 PM54 °FPartly sunny.3 mph77%29.80 "HgN/A
7:30 PM54 °FPartly sunny.6 mph77%29.80 "HgN/A
7:00 PM54 °FPartly sunny.3 mph77%29.80 "HgN/A
6:30 PM54 °FPartly sunny.3 mph77%29.80 "HgN/A
6:00 PM54 °FPartly sunny.6 mph77%29.80 "HgN/A
5:30 PM54 °FPartly sunny.6 mph77%29.80 "HgN/A
5:00 PM54 °FPartly sunny.6 mph77%29.80 "HgN/A
4:30 PM55 °FPartly sunny.6 mph72%29.80 "HgN/A
4:00 PM54 °FPartly sunny.3 mph77%29.80 "HgN/A
3:30 PM54 °FPartly sunny.3 mph77%29.80 "HgN/A
3:00 PM52 °FPartly sunny.3 mph82%29.80 "HgN/A
2:30 PM52 °FPartly sunny.6 mph82%29.77 "HgN/A
2:00 PM52 °FPartly sunny.6 mph82%29.77 "HgN/A
1:30 PM52 °FPartly sunny.6 mph82%29.77 "HgN/A
1:00 PM52 °FPartly sunny.8 mph82%29.77 "HgN/A
12:30 PM52 °FPartly sunny.8 mph82%29.77 "HgN/A
12:00 PM52 °FPartly sunny.6 mph82%29.77 "HgN/A
Weather by CustomWeather, © 2015

See weather overviewHow to use our weather pages